Time,TemperatureF,DewpointF,PressureIn,WindDirection,WindDirectionDegrees,WindSpeedMPH,WindSpeedGustMPH,Humidity,HourlyPrecipIn,Conditions,Clouds,dailyrainin,SolarRadiationWatts/m^2,SoftwareType,DateUTC
2013-07-11 00:02:00,79.0,72.0,-100.00,SSW,203,8.0,17.0,79,0.00,,,0.00,0.000000,,2013-07-11 04:02:00,
2013-07-11 00:32:00,79.0,72.0,-100.00,SSW,196,9.0,16.0,79,0.00,,,0.00,0.000000,,2013-07-11 04:32:00,
2013-07-11 00:43:00,79.0,72.0,-100.00,SSW,196,9.0,16.0,79,0.00,,,0.00,0.000000,,2013-07-11 04:43:00,
2013-07-11 00:53:00,79.0,72.0,-100.00,SSW,196,9.0,16.0,79,0.00,,,0.00,0.000000,,2013-07-11 04:53:00,
2013-07-11 01:02:00,79.0,72.0,-100.00,SSW,196,9.0,16.0,79,0.00,,,0.00,0.000000,,2013-07-11 05:02:00,
2013-07-11 01:32:00,79.0,72.0,-100.00,SSW,200,8.0,16.0,78,0.00,,,0.00,0.000000,,2013-07-11 05:32:00,
2013-07-11 01:43:00,79.0,72.0,-100.00,SSW,200,8.0,16.0,78,0.00,,,0.00,0.000000,,2013-07-11 05:43:00,
2013-07-11 01:52:00,79.0,72.0,-100.00,SSW,200,8.0,16.0,78,0.00,,,0.00,0.000000,,2013-07-11 05:52:00,
2013-07-11 02:01:00,79.0,72.0,-100.00,SSW,200,8.0,16.0,78,0.00,,,0.00,0.000000,,2013-07-11 06:01:00,
2013-07-11 02:32:00,80.0,72.0,-100.00,SSW,196,8.0,15.0,76,0.00,,,0.00,0.000000,,2013-07-11 06:32:00,
2013-07-11 02:43:00,80.0,72.0,-100.00,SSW,196,8.0,15.0,76,0.00,,,0.00,0.000000,,2013-07-11 06:43:00,
2013-07-11 02:53:00,80.0,72.0,-100.00,SSW,196,8.0,15.0,76,0.00,,,0.00,0.000000,,2013-07-11 06:53:00,
2013-07-11 03:02:00,80.0,72.0,-100.00,SSW,196,8.0,15.0,76,0.00,,,0.00,0.000000,,2013-07-11 07:02:00,
2013-07-11 03:32:00,76.0,72.0,-100.00,South,178,8.0,18.0,87,0.00,,,0.00,0.000000,,2013-07-11 07:32:00,
2013-07-11 03:45:00,76.0,72.0,-100.00,South,178,8.0,18.0,87,0.00,,,0.00,0.000000,,2013-07-11 07:45:00,
2013-07-11 03:53:00,76.0,72.0,-100.00,South,178,8.0,18.0,87,0.00,,,0.00,0.000000,,2013-07-11 07:53:00,
2013-07-11 04:02:00,76.0,72.0,-100.00,South,178,8.0,18.0,87,0.00,,,0.00,0.000000,,2013-07-11 08:02:00,
2013-07-11 04:34:00,77.0,73.0,-100.00,South,185,7.0,14.0,88,0.00,,,0.00,0.000000,,2013-07-11 08:34:00,
2013-07-11 04:43:00,77.0,73.0,-100.00,South,185,7.0,14.0,88,0.00,,,0.00,0.000000,,2013-07-11 08:43:00,
2013-07-11 04:53:00,77.0,73.0,-100.00,South,185,7.0,14.0,88,0.00,,,0.00,0.000000,,2013-07-11 08:53:00,
2013-07-11 05:03:00,77.0,73.0,-100.00,South,185,7.0,14.0,88,0.00,,,0.00,0.000000,,2013-07-11 09:03:00,
2013-07-11 05:33:00,77.0,74.0,-100.00,SW,236,6.0,15.0,89,0.00,,,0.00,0.000000,,2013-07-11 09:33:00,
2013-07-11 05:43:00,77.0,74.0,-100.00,SW,236,6.0,15.0,89,0.00,,,0.00,0.000000,,2013-07-11 09:43:00,
2013-07-11 05:53:00,77.0,74.0,-100.00,SW,236,6.0,15.0,89,0.00,,,0.00,0.000000,,2013-07-11 09:53:00,
2013-07-11 06:01:00,77.0,74.0,-100.00,SW,236,6.0,15.0,89,0.00,,,0.00,0.000000,,2013-07-11 10:01:00,
2013-07-11 06:33:00,76.0,73.0,-100.00,WSW,256,4.0,11.0,89,0.00,,,0.00,0.000000,,2013-07-11 10:33:00,
2013-07-11 06:43:00,76.0,73.0,-100.00,WSW,256,4.0,11.0,89,0.00,,,0.00,0.000000,,2013-07-11 10:43:00,
2013-07-11 06:52:00,76.0,73.0,-100.00,WSW,256,4.0,11.0,89,0.00,,,0.00,0.000000,,2013-07-11 10:52:00,
2013-07-11 07:02:00,76.0,73.0,-100.00,WSW,256,4.0,11.0,89,0.00,,,0.00,0.000000,,2013-07-11 11:02:00,
2013-07-11 07:33:00,77.0,73.0,-100.00,WSW,258,6.0,10.0,87,0.00,,,-99.99,29.000000,,2013-07-11 11:33:00,
2013-07-11 07:43:00,77.0,73.0,-100.00,WSW,258,6.0,10.0,87,0.00,,,-99.99,29.000000,,2013-07-11 11:43:00,
2013-07-11 07:53:00,77.0,73.0,-100.00,WSW,258,6.0,10.0,87,0.00,,,-99.99,29.000000,,2013-07-11 11:53:00,
2013-07-11 08:01:00,77.0,73.0,-100.00,WSW,258,6.0,10.0,87,0.00,,,-99.99,29.000000,,2013-07-11 12:01:00,
2013-07-11 08:33:00,79.0,74.0,-100.00,West,263,6.0,11.0,84,0.00,,,-99.99,135.000000,,2013-07-11 12:33:00,
2013-07-11 08:43:00,79.0,74.0,-100.00,West,263,6.0,11.0,84,0.00,,,-99.99,135.000000,,2013-07-11 12:43:00,
2013-07-11 08:57:00,79.0,74.0,-100.00,West,263,6.0,11.0,84,0.00,,,-99.99,135.000000,,2013-07-11 12:57:00,
2013-07-11 09:05:00,80.0,73.0,-100.00,WSW,248,6.0,15.0,79,0.00,,,0.00,350.000000,,2013-07-11 13:05:00,
2013-07-11 09:47:00,80.0,73.0,-100.00,WSW,248,6.0,15.0,79,0.00,,,0.00,350.000000,,2013-07-11 13:47:00,
2013-07-11 09:55:00,80.0,73.0,-100.00,WSW,248,6.0,15.0,79,0.00,,,0.00,350.000000,,2013-07-11 13:55:00,
2013-07-11 10:05:00,83.0,73.0,-100.00,WSW,257,9.0,16.0,71,0.00,,,0.00,491.000000,,2013-07-11 14:05:00,
2013-07-11 10:36:00,83.0,73.0,-100.00,WSW,257,9.0,16.0,71,0.00,,,0.00,491.000000,,2013-07-11 14:36:00,
2013-07-11 10:47:00,83.0,73.0,-100.00,WSW,257,9.0,16.0,71,0.00,,,0.00,491.000000,,2013-07-11 14:47:00,
2013-07-11 10:55:00,83.0,73.0,-100.00,WSW,257,9.0,16.0,71,0.00,,,0.00,491.000000,,2013-07-11 14:55:00,
2013-07-11 11:05:00,85.0,72.0,-100.00,SW,230,9.0,17.0,66,0.00,,,0.00,665.000000,,2013-07-11 15:05:00,
2013-07-11 11:48:00,85.0,72.0,-100.00,SW,230,9.0,17.0,66,0.00,,,0.00,665.000000,,2013-07-11 15:48:00,
2013-07-11 11:59:00,85.0,72.0,-100.00,SW,230,9.0,17.0,66,0.00,,,0.00,665.000000,,2013-07-11 15:59:00,
2013-07-11 12:36:00,85.0,73.0,-100.00,SSW,201,10.0,22.0,68,0.00,,,0.00,1100.000000,,2013-07-11 16:36:00,
2013-07-11 12:49:00,85.0,73.0,-100.00,SSW,201,10.0,22.0,68,0.00,,,0.00,1100.000000,,2013-07-11 16:49:00,
2013-07-11 12:56:00,85.0,73.0,-100.00,SSW,201,10.0,22.0,68,0.00,,,0.00,1100.000000,,2013-07-11 16:56:00,
2013-07-11 13:03:00,85.0,73.0,-100.00,SSW,201,10.0,22.0,68,0.00,,,0.00,1100.000000,,2013-07-11 17:03:00,
2013-07-11 13:05:00,85.0,73.0,-100.00,SSW,206,10.0,22.0,67,0.00,,,0.00,1085.000000,,2013-07-11 17:05:00,
2013-07-11 13:40:00,85.0,73.0,-100.00,SSW,206,10.0,22.0,67,0.00,,,0.00,1085.000000,,2013-07-11 17:40:00,
2013-07-11 13:50:00,85.0,73.0,-100.00,SSW,206,10.0,22.0,67,0.00,,,0.00,1085.000000,,2013-07-11 17:50:00,
2013-07-11 13:57:00,85.0,73.0,-100.00,SSW,206,10.0,22.0,67,0.00,,,0.00,1085.000000,,2013-07-11 17:57:00,
2013-07-11 14:05:00,85.0,74.0,-100.00,SSW,204,12.0,20.0,69,0.00,,,0.00,1103.000000,,2013-07-11 18:05:00,
2013-07-11 14:56:00,85.0,74.0,-100.00,SSW,204,12.0,20.0,69,0.00,,,0.00,1103.000000,,2013-07-11 18:56:00,
2013-07-11 15:05:00,84.0,73.0,-100.00,SSW,194,12.0,22.0,70,0.00,,,0.00,1017.000000,,2013-07-11 19:05:00,
2013-07-11 15:47:00,84.0,73.0,-100.00,SSW,194,12.0,22.0,70,0.00,,,0.00,1017.000000,,2013-07-11 19:47:00,
2013-07-11 15:58:00,84.0,73.0,-100.00,SSW,194,12.0,22.0,70,0.00,,,0.00,1017.000000,,2013-07-11 19:58:00,
2013-07-11 16:40:00,84.0,72.0,-100.00,SSW,204,11.0,22.0,68,0.00,,,0.00,924.000000,,2013-07-11 20:40:00,
2013-07-11 16:50:00,84.0,72.0,-100.00,SSW,204,11.0,22.0,68,0.00,,,0.00,924.000000,,2013-07-11 20:50:00,
2013-07-11 16:56:00,84.0,72.0,-100.00,SSW,204,11.0,22.0,68,0.00,,,0.00,924.000000,,2013-07-11 20:56:00,
2013-07-11 17:05:00,83.0,73.0,-100.00,SSW,204,11.0,23.0,72,0.00,,,0.00,658.000000,,2013-07-11 21:05:00,
2013-07-11 17:46:00,83.0,73.0,-100.00,SSW,204,11.0,23.0,72,0.00,,,0.00,658.000000,,2013-07-11 21:46:00,
2013-07-11 17:59:00,83.0,73.0,-100.00,SSW,204,11.0,23.0,72,0.00,,,0.00,658.000000,,2013-07-11 21:59:00,
2013-07-11 18:05:00,82.0,73.0,-100.00,South,188,10.0,19.0,74,0.00,,,-99.99,550.000000,,2013-07-11 22:05:00,
2013-07-11 18:36:00,82.0,73.0,-100.00,South,188,10.0,19.0,74,0.00,,,-99.99,550.000000,,2013-07-11 22:36:00,
2013-07-11 18:49:00,82.0,73.0,-100.00,South,188,10.0,19.0,74,0.00,,,-99.99,550.000000,,2013-07-11 22:49:00,
2013-07-11 18:55:00,82.0,73.0,-100.00,South,188,10.0,19.0,74,0.00,,,-99.99,550.000000,,2013-07-11 22:55:00,
2013-07-11 19:05:00,80.0,72.0,-100.00,SSW,200,8.0,19.0,76,0.00,,,0.00,226.000000,,2013-07-11 23:05:00,
2013-07-11 19:37:00,80.0,72.0,-100.00,SSW,200,8.0,19.0,76,0.00,,,0.00,226.000000,,2013-07-11 23:37:00,
2013-07-11 19:47:00,80.0,72.0,-100.00,SSW,200,8.0,19.0,76,0.00,,,0.00,226.000000,,2013-07-11 23:47:00,
2013-07-11 20:00:00,80.0,72.0,-100.00,SSW,200,8.0,19.0,76,0.00,,,0.00,226.000000,,2013-07-12 00:00:00,
2013-07-11 20:05:00,80.0,73.0,-100.00,SSW,206,7.0,19.0,78,0.00,,,0.00,36.000000,,2013-07-12 00:05:00,
2013-07-11 20:46:00,80.0,73.0,-100.00,SSW,206,7.0,19.0,78,0.00,,,0.00,36.000000,,2013-07-12 00:46:00,
2013-07-11 20:58:00,80.0,73.0,-100.00,SSW,206,7.0,19.0,78,0.00,,,0.00,36.000000,,2013-07-12 00:58:00,
2013-07-11 21:05:00,79.0,72.0,-100.00,SSW,199,8.0,14.0,79,0.00,,,0.00,2.000000,,2013-07-12 01:05:00,
2013-07-11 21:38:00,79.0,72.0,-100.00,SSW,199,8.0,14.0,79,0.00,,,0.00,2.000000,,2013-07-12 01:38:00,
2013-07-11 21:49:00,79.0,72.0,-100.00,SSW,199,8.0,14.0,79,0.00,,,0.00,2.000000,,2013-07-12 01:49:00,
2013-07-11 21:56:00,79.0,72.0,-100.00,SSW,199,8.0,14.0,79,0.00,,,0.00,2.000000,,2013-07-12 01:56:00,
2013-07-11 22:36:00,79.0,72.0,-100.00,SSW,203,8.0,13.0,79,0.00,,,0.00,0.000000,,2013-07-12 02:36:00,
2013-07-11 22:46:00,79.0,72.0,-100.00,SSW,203,8.0,13.0,79,0.00,,,0.00,0.000000,,2013-07-12 02:46:00,
2013-07-11 23:04:00,79.0,72.0,-100.00,SSW,203,8.0,13.0,79,0.00,,,0.00,0.000000,,2013-07-12 03:04:00,